ABY101 OMSJ-OBBI

Flight info

Callsign ABY101
Flight time 0h 54m
Altitude 26000
Route NABIX P699 ORMID M556 ORDIG
Aircraft A320/M-SDE3FGHIRWY/LB1

Departure

Time 2026-05-06 23:36
Airport Sharjah International Airport (OMSJ)

Arrival

Time 2026-05-07 00:30
Airport Bahrain International Airport (OBBI)
Time Latitude Longitude Altitude Speed Heading
2026-05-06 23:14 25.32381 55.51899 115 ft 0 kts 212°
2026-05-06 23:28 25.32396 55.51909 114 ft 4 kts 212°
2026-05-06 23:28 25.32419 55.51926 115 ft 4 kts 213°
2026-05-06 23:28 25.32441 55.51942 115 ft 4 kts 212°
2026-05-06 23:29 25.32464 55.51957 115 ft 4 kts 207°
2026-05-06 23:29 25.32489 55.51969 115 ft 4 kts 194°
2026-05-06 23:29 25.32501 55.51972 115 ft 0 kts 194°
2026-05-06 23:31 25.32497 55.51973 115 ft 2 kts 178°
2026-05-06 23:31 25.32487 55.51996 114 ft 6 kts 111°
2026-05-06 23:32 25.32465 55.52059 114 ft 12 kts 113°
2026-05-06 23:32 25.32414 55.52154 112 ft 17 kts 122°
2026-05-06 23:32 25.32339 55.52283 114 ft 22 kts 122°
2026-05-06 23:32 25.32251 55.52437 115 ft 25 kts 122°
2026-05-06 23:33 25.32157 55.52601 114 ft 26 kts 122°
2026-05-06 23:33 25.32059 55.52772 115 ft 27 kts 122°
2026-05-06 23:33 25.31956 55.52950 114 ft 28 kts 122°
2026-05-06 23:33 25.31850 55.53134 115 ft 27 kts 122°
2026-05-06 23:34 25.31783 55.53313 115 ft 25 kts 83°
2026-05-06 23:34 25.31877 55.53417 112 ft 16 kts 31°
2026-05-06 23:34 25.31973 55.53483 115 ft 16 kts 32°
2026-05-06 23:34 25.32077 55.53515 115 ft 16 kts 341°
2026-05-06 23:35 25.32152 55.53419 115 ft 17 kts 302°
2026-05-06 23:35 25.32259 55.53231 116 ft 60 kts 302°
2026-05-06 23:35 25.32629 55.52601 117 ft 131 kts 302°
2026-05-06 23:35 25.33241 55.51566 174 ft 180 kts 304°
2026-05-06 23:36 25.33928 55.50392 820 ft 187 kts 303°
2026-05-06 23:36 25.34648 55.49128 1475 ft 202 kts 303°
2026-05-06 23:36 25.35440 55.47741 1934 ft 225 kts 303°
2026-05-06 23:36 25.36354 55.46136 2022 ft 270 kts 302°
2026-05-06 23:37 25.37377 55.44337 1999 ft 270 kts 302°
2026-05-06 23:37 25.38342 55.42641 1996 ft 252 kts 301°
2026-05-06 23:37 25.39244 55.41049 1998 ft 239 kts 301°
2026-05-06 23:37 25.40118 55.39498 1998 ft 237 kts 301°
2026-05-06 23:38 25.41003 55.37961 1999 ft 237 kts 302°
2026-05-06 23:38 25.41903 55.36431 1994 ft 237 kts 303°
2026-05-06 23:38 25.42804 55.34913 1992 ft 234 kts 303°
2026-05-06 23:38 25.43693 55.33410 1990 ft 233 kts 303°
2026-05-06 23:39 25.44578 55.31908 1992 ft 233 kts 303°
2026-05-06 23:39 25.45461 55.30405 1989 ft 232 kts 301°
2026-05-06 23:39 25.46089 55.28771 1982 ft 232 kts 282°
2026-05-06 23:39 25.46206 55.26929 2111 ft 252 kts 268°
2026-05-06 23:40 25.46150 55.24931 2687 ft 265 kts 268°
2026-05-06 23:40 25.46107 55.22877 3437 ft 269 kts 268°
2026-05-06 23:40 25.46066 55.20789 4205 ft 274 kts 268°
2026-05-06 23:40 25.46023 55.18676 5008 ft 276 kts 268°
2026-05-06 23:41 25.45982 55.16546 5800 ft 278 kts 267°
2026-05-06 23:41 25.45938 55.14400 6566 ft 280 kts 267°
2026-05-06 23:41 25.45891 55.12236 7284 ft 283 kts 267°
2026-05-06 23:41 25.45837 55.10048 7971 ft 286 kts 264°
2026-05-06 23:42 25.45455 55.07890 8634 ft 288 kts 250°
2026-05-06 23:42 25.44588 55.05882 9286 ft 291 kts 236°
2026-05-06 23:42 25.43407 55.04046 9925 ft 295 kts 234°
2026-05-06 23:42 25.42179 55.02162 10278 ft 312 kts 234°
2026-05-06 23:43 25.40866 55.00143 10426 ft 335 kts 234°
2026-05-06 23:43 25.39479 54.98011 10797 ft 347 kts 234°
2026-05-06 23:43 25.38061 54.95831 11399 ft 351 kts 235°
2026-05-06 23:43 25.36612 54.93596 12042 ft 355 kts 236°
2026-05-06 23:44 25.35133 54.91371 12615 ft 363 kts 231°
2026-05-06 23:44 25.33328 54.89388 13159 ft 370 kts 221°
2026-05-06 23:44 25.31368 54.87523 13761 ft 374 kts 220°
2026-05-06 23:44 25.29388 54.85642 14407 ft 376 kts 220°
2026-05-06 23:45 25.27399 54.83751 15051 ft 379 kts 220°
2026-05-06 23:45 25.25395 54.81847 15680 ft 381 kts 220°
2026-05-06 23:45 25.23412 54.79895 16286 ft 383 kts 226°
2026-05-06 23:45 25.21779 54.77557 16870 ft 386 kts 239°
2026-05-06 23:46 25.20676 54.74850 17455 ft 389 kts 253°
2026-05-06 23:46 25.20162 54.71919 18011 ft 391 kts 266°
2026-05-06 23:46 25.20217 54.68911 18571 ft 393 kts 274°
2026-05-06 23:46 25.20397 54.65890 19129 ft 395 kts 274°
2026-05-06 23:47 25.20578 54.62858 19667 ft 397 kts 274°
2026-05-06 23:47 25.20756 54.59804 20178 ft 399 kts 273°
2026-05-06 23:47 25.20929 54.56736 20668 ft 402 kts 273°
2026-05-06 23:47 25.21139 54.53646 21127 ft 405 kts 277°
2026-05-06 23:48 25.21734 54.50603 21605 ft 407 kts 285°
2026-05-06 23:48 25.22503 54.47584 22091 ft 409 kts 285°
2026-05-06 23:48 25.23271 54.44560 22582 ft 409 kts 285°
2026-05-06 23:48 25.24037 54.41529 23044 ft 411 kts 285°
2026-05-06 23:49 25.24802 54.38483 23482 ft 412 kts 284°
2026-05-06 23:49 25.25568 54.35429 23897 ft 414 kts 284°
2026-05-06 23:49 25.26341 54.32356 24319 ft 416 kts 284°
2026-05-06 23:49 25.27115 54.29273 24731 ft 417 kts 284°
2026-05-06 23:50 25.27884 54.26174 25139 ft 418 kts 284°
2026-05-06 23:50 25.29418 54.19956 25896 ft 421 kts 284°
2026-05-06 23:50 25.30187 54.16836 26014 ft 418 kts 284°
2026-05-06 23:51 25.30939 54.13791 26037 ft 406 kts 284°
2026-05-06 23:51 25.31660 54.10743 26038 ft 402 kts 282°
2026-05-06 23:51 25.32312 54.07747 26033 ft 401 kts 282°
2026-05-06 23:51 25.32932 54.04742 26036 ft 401 kts 281°
2026-05-06 23:52 25.33334 54.02757 26031 ft 400 kts 281°
2026-05-06 23:52 25.34150 53.98739 26039 ft 400 kts 281°
2026-05-06 23:52 25.34559 53.96752 26031 ft 400 kts 281°
2026-05-06 23:52 25.35184 53.93753 26038 ft 401 kts 281°
2026-05-06 23:53 25.35816 53.90755 26037 ft 400 kts 282°
2026-05-06 23:53 25.36451 53.87759 26035 ft 400 kts 281°
2026-05-06 23:53 25.37087 53.84762 26031 ft 400 kts 282°
2026-05-06 23:53 25.37721 53.81764 26031 ft 400 kts 281°
2026-05-06 23:54 25.38353 53.78768 26031 ft 400 kts 281°
2026-05-06 23:54 25.38983 53.75769 26030 ft 400 kts 281°
2026-05-06 23:54 25.39609 53.72775 26025 ft 400 kts 282°
2026-05-06 23:54 25.40236 53.69776 26028 ft 400 kts 281°
2026-05-06 23:55 25.40863 53.66775 26028 ft 400 kts 281°
2026-05-06 23:55 25.41490 53.63777 26028 ft 400 kts 281°
2026-05-06 23:55 25.42118 53.60781 26029 ft 400 kts 281°
2026-05-06 23:55 25.42749 53.57779 26027 ft 400 kts 281°
2026-05-06 23:56 25.43378 53.54782 26028 ft 400 kts 281°
2026-05-06 23:56 25.44006 53.51782 26028 ft 400 kts 281°
2026-05-06 23:56 25.44629 53.48782 26028 ft 400 kts 281°
2026-05-06 23:56 25.45258 53.45741 26027 ft 400 kts 281°
2026-05-06 23:57 25.45876 53.42740 26028 ft 400 kts 281°
2026-05-06 23:57 25.46494 53.39737 26028 ft 400 kts 281°
2026-05-06 23:57 25.47113 53.36733 26027 ft 400 kts 281°
2026-05-06 23:57 25.47735 53.33731 26030 ft 400 kts 281°
2026-05-06 23:58 25.48361 53.30727 26030 ft 400 kts 281°
2026-05-06 23:58 25.48983 53.27729 26029 ft 400 kts 281°
2026-05-06 23:58 25.49603 53.24729 26026 ft 400 kts 281°
2026-05-06 23:58 25.50219 53.21726 26027 ft 400 kts 281°
2026-05-06 23:59 25.50833 53.18724 26031 ft 400 kts 281°
2026-05-06 23:59 25.51448 53.15718 26032 ft 400 kts 281°
2026-05-06 23:59 25.52062 53.12721 26029 ft 399 kts 281°
2026-05-06 23:59 25.52675 53.09727 26032 ft 399 kts 281°
2026-05-07 00:00 25.53290 53.06727 26030 ft 399 kts 281°
2026-05-07 00:00 25.53903 53.03728 26030 ft 399 kts 281°
2026-05-07 00:00 25.54512 53.00727 25859 ft 399 kts 281°
2026-05-07 00:00 25.55112 52.97772 25796 ft 390 kts 281°
2026-05-07 00:01 25.55707 52.94851 25817 ft 389 kts 281°
2026-05-07 00:01 25.56358 52.91942 25813 ft 389 kts 286°
2026-05-07 00:01 25.57377 52.89159 25818 ft 391 kts 295°
2026-05-07 00:01 25.58676 52.86503 25808 ft 392 kts 296°
2026-05-07 00:02 25.59981 52.83846 25818 ft 392 kts 296°
2026-05-07 00:02 25.61280 52.81189 25815 ft 392 kts 296°
2026-05-07 00:02 25.62578 52.78530 25804 ft 392 kts 296°
2026-05-07 00:02 25.63873 52.75871 25818 ft 392 kts 296°
2026-05-07 00:03 25.65163 52.73214 25814 ft 392 kts 296°
2026-05-07 00:03 25.66453 52.70556 25814 ft 392 kts 296°
2026-05-07 00:03 25.67747 52.67893 25830 ft 392 kts 296°
2026-05-07 00:03 25.69055 52.65203 25833 ft 392 kts 296°
2026-05-07 00:04 25.70347 52.62546 25828 ft 391 kts 296°
2026-05-07 00:04 25.71636 52.59891 25832 ft 391 kts 296°
2026-05-07 00:04 25.72925 52.57235 25831 ft 391 kts 296°
2026-05-07 00:04 25.74211 52.54579 25837 ft 391 kts 296°
2026-05-07 00:05 25.75496 52.51927 25830 ft 391 kts 296°
2026-05-07 00:05 25.76781 52.49269 25830 ft 391 kts 295°
2026-05-07 00:05 25.78043 52.46599 25831 ft 391 kts 295°
2026-05-07 00:05 25.79286 52.43921 25834 ft 390 kts 294°
2026-05-07 00:06 25.80518 52.41239 25830 ft 390 kts 294°
2026-05-07 00:06 25.81749 52.38559 25840 ft 390 kts 294°
2026-05-07 00:06 25.82982 52.35881 25830 ft 390 kts 294°
2026-05-07 00:06 25.84218 52.33205 25833 ft 390 kts 294°
2026-05-07 00:07 25.85457 52.30527 25833 ft 390 kts 294°
2026-05-07 00:07 25.86755 52.27884 25826 ft 391 kts 300°
2026-05-07 00:07 25.88393 52.25470 25830 ft 393 kts 309°
2026-05-07 00:07 25.90247 52.23241 25833 ft 393 kts 309°
2026-05-07 00:08 25.92099 52.21014 25838 ft 392 kts 309°
2026-05-07 00:08 25.93950 52.18786 25830 ft 392 kts 309°
2026-05-07 00:08 25.95795 52.16558 25836 ft 392 kts 309°
2026-05-07 00:08 25.97640 52.14325 25848 ft 392 kts 309°
2026-05-07 00:09 25.99482 52.12091 25839 ft 392 kts 309°
2026-05-07 00:09 26.01325 52.09854 25839 ft 392 kts 309°
2026-05-07 00:09 26.03169 52.07618 25838 ft 393 kts 309°
2026-05-07 00:09 26.05016 52.05384 25840 ft 392 kts 309°
2026-05-07 00:10 26.06610 52.03460 25844 ft 392 kts 309°
2026-05-07 00:10 26.08456 52.01230 25838 ft 392 kts 309°
2026-05-07 00:10 26.10327 51.98964 25844 ft 392 kts 309°
2026-05-07 00:10 26.12170 51.96728 25838 ft 392 kts 309°
2026-05-07 00:11 26.14012 51.94494 25843 ft 392 kts 309°
2026-05-07 00:11 26.15854 51.92256 25843 ft 392 kts 309°
2026-05-07 00:11 26.17697 51.90021 25840 ft 392 kts 309°
2026-05-07 00:11 26.19542 51.87782 25847 ft 392 kts 309°
2026-05-07 00:12 26.21379 51.85545 25839 ft 392 kts 309°
2026-05-07 00:12 26.23219 51.83304 25839 ft 392 kts 309°
2026-05-07 00:12 26.24952 51.80968 25848 ft 389 kts 301°
2026-05-07 00:12 26.26315 51.78385 25852 ft 386 kts 293°
2026-05-07 00:13 26.27503 51.75703 25851 ft 386 kts 293°
2026-05-07 00:13 26.28693 51.73018 25844 ft 386 kts 293°
2026-05-07 00:13 26.29880 51.70339 25849 ft 385 kts 293°
2026-05-07 00:13 26.31073 51.67657 25849 ft 386 kts 293°
2026-05-07 00:14 26.32266 51.64981 25852 ft 386 kts 293°
2026-05-07 00:14 26.33462 51.62305 25859 ft 386 kts 293°
2026-05-07 00:14 26.34657 51.59632 25859 ft 385 kts 293°
2026-05-07 00:14 26.35853 51.56953 25855 ft 386 kts 293°
2026-05-07 00:15 26.37047 51.54278 25849 ft 385 kts 293°
2026-05-07 00:15 26.38139 51.51560 25849 ft 383 kts 287°
2026-05-07 00:15 26.39033 51.48756 25850 ft 383 kts 287°
2026-05-07 00:15 26.39925 51.45954 25849 ft 384 kts 287°
2026-05-07 00:16 26.40818 51.43149 25853 ft 383 kts 287°
2026-05-07 00:16 26.41713 51.40345 25441 ft 386 kts 287°
2026-05-07 00:16 26.42624 51.37491 24450 ft 395 kts 287°
2026-05-07 00:16 26.43550 51.34597 23710 ft 396 kts 288°
2026-05-07 00:17 26.44477 51.31707 23049 ft 395 kts 287°
2026-05-07 00:17 26.45149 51.28758 22436 ft 391 kts 275°
2026-05-07 00:17 26.45181 51.25747 21846 ft 387 kts 262°
2026-05-07 00:17 26.44512 51.22870 21273 ft 383 kts 246°
2026-05-07 00:18 26.43207 51.20298 20681 ft 381 kts 237°
2026-05-07 00:18 26.41780 51.17810 20112 ft 379 kts 236°
2026-05-07 00:18 26.40352 51.15345 19583 ft 377 kts 236°
2026-05-07 00:18 26.38944 51.12923 19382 ft 366 kts 236°
2026-05-07 00:19 26.37565 51.10550 19252 ft 354 kts 236°
2026-05-07 00:19 26.36248 51.08284 19121 ft 342 kts 236°
2026-05-07 00:19 26.34968 51.06081 18846 ft 336 kts 236°
2026-05-07 00:19 26.33565 51.04001 18211 ft 338 kts 221°
2026-05-07 00:20 26.31586 51.02611 17666 ft 338 kts 199°
2026-05-07 00:20 26.29284 51.02185 17186 ft 337 kts 177°
2026-05-07 00:20 26.27016 51.02780 16715 ft 338 kts 155°
2026-05-07 00:20 26.25122 51.04312 16276 ft 339 kts 133°
2026-05-07 00:21 26.23897 51.06544 15846 ft 341 kts 110°
2026-05-07 00:21 26.23531 51.09136 15427 ft 342 kts 88°
2026-05-07 00:21 26.24080 51.11694 15011 ft 342 kts 65°
2026-05-07 00:21 26.25464 51.13822 14612 ft 341 kts 42°
2026-05-07 00:22 26.26738 51.14832 14349 ft 340 kts 27°
2026-05-07 00:22 26.29746 51.15810 13923 ft 334 kts
2026-05-07 00:22 26.31976 51.15369 13795 ft 323 kts 333°
2026-05-07 00:22 26.33681 51.13832 13590 ft 315 kts 304°
2026-05-07 00:23 26.34467 51.11601 13276 ft 311 kts 274°
2026-05-07 00:23 26.34151 51.09259 12922 ft 308 kts 247°
2026-05-07 00:23 26.33195 51.07128 12529 ft 308 kts 240°
2026-05-07 00:23 26.32153 51.05026 12055 ft 311 kts 242°
2026-05-07 00:24 26.31235 51.02844 11656 ft 311 kts 248°
2026-05-07 00:24 26.30537 51.00578 11125 ft 308 kts 255°
2026-05-07 00:24 26.30097 50.98253 10415 ft 306 kts 258°
2026-05-07 00:24 26.29477 50.95989 9724 ft 305 kts 247°
2026-05-07 00:25 26.28477 50.93915 9036 ft 303 kts 237°
2026-05-07 00:25 26.27269 50.91995 8351 ft 302 kts 234°
2026-05-07 00:25 26.26009 50.90138 7701 ft 298 kts 234°
2026-05-07 00:25 26.25177 50.88899 7236 ft 295 kts 235°
2026-05-07 00:26 26.23594 50.86436 6193 ft 295 kts 236°
2026-05-07 00:26 26.22808 50.85161 5656 ft 296 kts 237°
2026-05-07 00:26 26.21293 50.82642 4609 ft 295 kts 239°
2026-05-07 00:26 26.20534 50.81354 4079 ft 294 kts 239°
2026-05-07 00:27 26.19465 50.79424 3338 ft 289 kts 249°
2026-05-07 00:27 26.19213 50.77349 3085 ft 258 kts 285°
2026-05-07 00:27 26.19911 50.75665 2996 ft 226 kts 305°
2026-05-07 00:27 26.20732 50.74290 2998 ft 205 kts 308°
2026-05-07 00:28 26.21485 50.73030 3021 ft 181 kts 307°
2026-05-07 00:28 26.22118 50.71942 2993 ft 156 kts 307°
2026-05-07 00:28 26.22740 50.70924 2302 ft 165 kts 309°
2026-05-07 00:28 26.23389 50.69844 1713 ft 167 kts 304°
2026-05-07 00:29 26.23951 50.68748 1259 ft 160 kts 303°
2026-05-07 00:29 26.24544 50.67734 876 ft 153 kts 308°
2026-05-07 00:30 26.26178 50.64931 40 ft 135 kts 305°
2026-05-07 00:30 26.26644 50.64142 19 ft 102 kts 303°
2026-05-07 00:30 26.26927 50.63635 18 ft 52 kts 303°
2026-05-07 00:30 26.27032 50.63456 20 ft 3 kts 303°
2026-05-07 00:31 26.27045 50.63433 18 ft 6 kts 302°
2026-05-07 00:31 26.27077 50.63375 19 ft 11 kts 302°
2026-05-07 00:31 26.27130 50.63283 19 ft 16 kts 303°
2026-05-07 00:31 26.27198 50.63168 20 ft 19 kts 300°
2026-05-07 00:32 26.27243 50.63023 19 ft 21 kts 282°
2026-05-07 00:32 26.27242 50.62862 20 ft 20 kts 234°
2026-05-07 00:32 26.27163 50.62898 21 ft 13 kts 138°
2026-05-07 00:32 26.27093 50.62889 21 ft 10 kts 236°
2026-05-07 00:33 26.27048 50.62837 19 ft 9 kts 212°
2026-05-07 00:33 26.27000 50.62802 22 ft 8 kts 213°
2026-05-07 00:33 26.26969 50.62780 19 ft 0 kts 213°